When you browse on this site, cookies collect data to enhance your experience and personalize the content and advertising you see.
Visit our Privacy Policy to learn more. By continuing to use the site, you agree to this use of cookies and data.
  • en Suisse
  • Liste des pays
  • À 7 jours
  • Température de l'eau
  • Carte satellitaire
  • Carte météo
  • Widgets météo
  • user-avatar
    Se connecter

    Météo par heure à Bishkek

    Ce jour, 23 Janvier, Mercredi

    Heure Température Précipitation Vent Pression Humidité
    00:00 -23°C° 0 mm 2 m/s 475 mmHg 45%
    01:00 -23°C° 0 mm 2 m/s 476 mmHg 46%
    02:00 -23°C° 0 mm 2 m/s 476 mmHg 48%
    03:00 -23°C° 0 mm 2 m/s 476 mmHg 47%
    04:00 -24°C° 0 mm 2 m/s 476 mmHg 46%
    05:00 -24°C° 0 mm 2 m/s 475 mmHg 45%
    06:00 -24°C° 0 mm 2 m/s 475 mmHg 43%
    07:00 -24°C° 0 mm 2 m/s 476 mmHg 42%
    08:00 -24°C° 0 mm 2 m/s 476 mmHg 41%
    09:00 -21°C° 0 mm 2 m/s 477 mmHg 47%
    10:00 -20°C° 0 mm 2 m/s 478 mmHg 53%
    11:00 -16°C° 0 mm 1 m/s 479 mmHg 60%
    12:00 -16°C° 0 mm 1 m/s 480 mmHg 64%
    13:00 -16°C° 0 mm 1 m/s 480 mmHg 69%
    14:00 -15°C° 0 mm 1 m/s 480 mmHg 74%
    15:00 -19°C° 0 mm 2 m/s 478 mmHg 75%
    16:00 -21°C° 0 mm 2 m/s 477 mmHg 76%
    17:00 -24°C° 0 mm 2 m/s 476 mmHg 77%
    18:00 -24°C° 0 mm 2 m/s 476 mmHg 69%
    19:00 -24°C° 0 mm 2 m/s 476 mmHg 62%
    20:00 -25°C° 0 mm 3 m/s 477 mmHg 54%
    21:00 -25°C° 0 mm 3 m/s 477 mmHg 52%
    22:00 -25°C° 0 mm 3 m/s 477 mmHg 51%
    23:00 -25°C° 0 mm 3 m/s 477 mmHg 49%

    Demain, 24 Janvier, Jeudi

    Heure Température Précipitation Vent Pression Humidité
    00:00 -25°C° 0 mm 3 m/s 477 mmHg 49%
    01:00 -25°C° 0 mm 3 m/s 478 mmHg 50%
    02:00 -25°C° 0 mm 3 m/s 478 mmHg 50%
    03:00 -25°C° 0 mm 3 m/s 478 mmHg 52%
    04:00 -25°C° 0 mm 3 m/s 478 mmHg 53%
    05:00 -25°C° 0 mm 3 m/s 478 mmHg 55%
    06:00 -25°C° 0 mm 3 m/s 478 mmHg 57%
    07:00 -25°C° 0 mm 3 m/s 479 mmHg 59%
    08:00 -25°C° 0 mm 3 m/s 479 mmHg 62%
    09:00 -23°C° 0 mm 2 m/s 480 mmHg 64%
    10:00 -20°C° 0 mm 2 m/s 482 mmHg 67%
    11:00 -19°C° 0 mm 2 m/s 483 mmHg 70%
    12:00 -19°C° 0 mm 2 m/s 483 mmHg 73%
    13:00 -19°C° 0 mm 2 m/s 483 mmHg 75%
    14:00 -19°C° 0 mm 2 m/s 483 mmHg 78%
    15:00 -20°C° 0.1 mm 2 m/s 482 mmHg 80%
    16:00 -21°C° 0.1 mm 2 m/s 481 mmHg 82%
    17:00 -23°C° 0.1 mm 2 m/s 481 mmHg 84%
    18:00 -23°C° 0.1 mm 2 m/s 481 mmHg 81%
    19:00 -25°C° 0.1 mm 3 m/s 481 mmHg 77%
    20:00 -25°C° 0.1 mm 3 m/s 481 mmHg 74%
    21:00 -25°C° 0 mm 3 m/s 481 mmHg 73%
    22:00 -26°C° 0 mm 3 m/s 481 mmHg 71%
    23:00 -27°C° 0 mm 4 m/s 481 mmHg 70%

    Après-demain, 25 Janvier, Vendredi

    Heure Température Précipitation Vent Pression Humidité
    00:00 -27°C° 0 mm 4 m/s 481 mmHg 69%
    01:00 -27°C° 0 mm 4 m/s 481 mmHg 69%
    02:00 -27°C° 0 mm 4 m/s 481 mmHg 68%
    03:00 -26°C° 0 mm 3 m/s 481 mmHg 67%
    04:00 -26°C° 0 mm 3 m/s 481 mmHg 66%
    05:00 -26°C° 0 mm 3 m/s 481 mmHg 65%
    06:00 -26°C° 0 mm 3 m/s 481 mmHg 63%
    07:00 -26°C° 0 mm 3 m/s 481 mmHg 62%
    08:00 -26°C° 0 mm 3 m/s 481 mmHg 61%
    09:00 -24°C° 0 mm 3 m/s 482 mmHg 62%
    10:00 -20°C° 0 mm 2 m/s 483 mmHg 62%
    11:00 -18°C° 0 mm 2 m/s 484 mmHg 63%
    12:00 -18°C° 0 mm 2 m/s 484 mmHg 65%
    13:00 -17°C° 0 mm 2 m/s 484 mmHg 66%
    14:00 -15°C° 0 mm 1 m/s 483 mmHg 68%
    15:00 -19°C° 0 mm 2 m/s 482 mmHg 67%
    16:00 -20°C° 0 mm 2 m/s 481 mmHg 67%
    17:00 -24°C° 0 mm 3 m/s 479 mmHg 67%
    18:00 -24°C° 0 mm 3 m/s 479 mmHg 58%
    19:00 -25°C° 0 mm 3 m/s 480 mmHg 50%
    20:00 -26°C° 0 mm 4 m/s 480 mmHg 42%
    21:00 -26°C° 0 mm 4 m/s 480 mmHg 40%
    22:00 -26°C° 0 mm 4 m/s 479 mmHg 37%
    23:00 -26°C° 0 mm 4 m/s 479 mmHg 35%

    26 Janvier, Samedi

    Heure Température Précipitation Vent Pression Humidité
    00:00 -26°C° 0 mm 4 m/s 479 mmHg 34%
    01:00 -26°C° 0 mm 4 m/s 479 mmHg 34%
    02:00 -26°C° 0 mm 4 m/s 479 mmHg 34%
    03:00 -26°C° 0 mm 4 m/s 479 mmHg 33%
    04:00 -26°C° 0 mm 4 m/s 479 mmHg 33%
    05:00 -26°C° 0 mm 4 m/s 479 mmHg 33%
    06:00 -25°C° 0 mm 4 m/s 479 mmHg 34%
    07:00 -25°C° 0 mm 4 m/s 479 mmHg 34%
    08:00 -25°C° 0 mm 4 m/s 479 mmHg 35%
    09:00 -23°C° 0 mm 3 m/s 480 mmHg 40%
    10:00 -21°C° 0 mm 3 m/s 481 mmHg 46%
    11:00 -17°C° 0 mm 2 m/s 482 mmHg 51%
    12:00 -17°C° 0 mm 2 m/s 482 mmHg 53%
    13:00 -17°C° 0 mm 2 m/s 482 mmHg 55%
    14:00 -16°C° 0 mm 2 m/s 482 mmHg 57%
    15:00 -18°C° 0 mm 2 m/s 481 mmHg 56%
    16:00 -22°C° 0 mm 3 m/s 479 mmHg 54%
    17:00 -25°C° 0 mm 4 m/s 478 mmHg 53%
    18:00 -25°C° 0 mm 4 m/s 478 mmHg 47%
    19:00 -25°C° 0 mm 4 m/s 479 mmHg 42%
    20:00 -25°C° 0 mm 4 m/s 479 mmHg 36%
    21:00 -25°C° 0 mm 4 m/s 479 mmHg 35%
    22:00 -25°C° 0 mm 4 m/s 479 mmHg 35%
    23:00 -25°C° 0 mm 4 m/s 479 mmHg 34%

    27 Janvier, Dimanche

    Heure Température Précipitation Vent Pression Humidité
    00:00 -25°C° 0 mm 4 m/s 479 mmHg 34%
    01:00 -25°C° 0 mm 4 m/s 479 mmHg 34%
    02:00 -25°C° 0 mm 4 m/s 479 mmHg 34%
    03:00 -25°C° 0 mm 4 m/s 479 mmHg 34%
    04:00 -25°C° 0 mm 4 m/s 479 mmHg 34%
    05:00 -24°C° 0 mm 3 m/s 479 mmHg 34%
    06:00 -24°C° 0 mm 3 m/s 480 mmHg 35%
    07:00 -24°C° 0 mm 3 m/s 480 mmHg 35%
    08:00 -24°C° 0 mm 3 m/s 480 mmHg 35%
    09:00 -22°C° 0 mm 3 m/s 481 mmHg 39%
    10:00 -19°C° 0 mm 2 m/s 482 mmHg 43%
    11:00 -17°C° 0 mm 2 m/s 483 mmHg 48%
    12:00 -17°C° 0 mm 2 m/s 483 mmHg 50%
    13:00 -17°C° 0 mm 2 m/s 483 mmHg 52%
    14:00 -14°C° 0 mm 1 m/s 483 mmHg 54%
    15:00 -18°C° 0 mm 2 m/s 482 mmHg 55%
    16:00 -22°C° 0 mm 3 m/s 481 mmHg 56%
    17:00 -23°C° 0 mm 3 m/s 479 mmHg 57%
    18:00 -25°C° 0 mm 4 m/s 480 mmHg 51%
    19:00 -25°C° 0 mm 4 m/s 480 mmHg 45%
    20:00 -25°C° 0 mm 4 m/s 480 mmHg 39%
    21:00 -26°C° 0 mm 5 m/s 480 mmHg 37%
    22:00 -26°C° 0 mm 5 m/s 480 mmHg 36%
    23:00 -26°C° 0 mm 5 m/s 480 mmHg 34%

    28 Janvier, Lundi

    Heure Température Précipitation Vent Pression Humidité
    00:00 -26°C° 0 mm 5 m/s 480 mmHg 36%
    01:00 -26°C° 0 mm 5 m/s 480 mmHg 38%
    02:00 -26°C° 0 mm 5 m/s 480 mmHg 40%
    03:00 -26°C° 0 mm 5 m/s 480 mmHg 41%
    04:00 -26°C° 0 mm 5 m/s 479 mmHg 42%
    05:00 -26°C° 0 mm 5 m/s 479 mmHg 43%
    06:00 -26°C° 0 mm 5 m/s 480 mmHg 44%
    07:00 -26°C° 0 mm 5 m/s 480 mmHg 45%
    08:00 -25°C° 0 mm 5 m/s 480 mmHg 45%
    09:00 -24°C° 0 mm 5 m/s 481 mmHg 48%
    10:00 -21°C° 0 mm 5 m/s 482 mmHg 51%
    11:00 -20°C° 0 mm 5 m/s 482 mmHg 55%
    12:00 -19°C° 0 mm 5 m/s 482 mmHg 58%
    13:00 -19°C° 0 mm 5 m/s 482 mmHg 61%
    14:00 -18°C° 0 mm 5 m/s 482 mmHg 64%
    15:00 -20°C° 0 mm 6 m/s 481 mmHg 63%
    16:00 -21°C° 0 mm 6 m/s 480 mmHg 62%
    17:00 -22°C° 0 mm 6 m/s 479 mmHg 61%
    18:00 -23°C° 0.2 mm 7 m/s 479 mmHg 66%
    19:00 -23°C° 0.2 mm 7 m/s 480 mmHg 71%
    20:00 -21°C° 0.2 mm 7 m/s 480 mmHg 76%
    21:00 -21°C° 0.6 mm 7 m/s 479 mmHg 76%
    22:00 -21°C° 0.6 mm 6 m/s 479 mmHg 77%
    23:00 -21°C° 0.6 mm 6 m/s 479 mmHg 78%
    Voir plus